datetime,flow
1970-10-01,8.89999962
1970-10-02,8.60000038
1970-10-03,8.60000038
1970-10-04,8.60000038
1970-10-05,8.60000038
1970-10-06,9.0
1970-10-07,9.0
1970-10-08,9.0
1970-10-09,9.0
1970-10-10,9.0
1970-10-11,9.5
1970-10-12,9.5
1970-10-13,9.5
1970-10-14,9.5
1970-10-15,9.5
1970-10-16,9.0
1970-10-17,9.0
1970-10-18,9.0
1970-10-19,9.0
1970-10-20,8.60000038
1970-10-21,8.60000038
1970-10-22,8.60000038
1970-10-23,8.19999981
1970-10-24,8.19999981
1970-10-25,8.60000038
1970-10-26,8.19999981
1970-10-27,7.9000001
1970-10-28,7.9000001
1970-10-29,7.9000001
1970-10-30,7.9000001
1970-10-31,7.9000001
1970-11-01,7.5
1970-11-02,7.5
1970-11-03,7.5
1970-11-04,7.5
1970-11-05,7.5
1970-11-06,7.5
1970-11-07,7.5
1970-11-08,7.5
1970-11-09,7.5
1970-11-10,7.5
1970-11-11,7.5
1970-11-12,7.5
1970-11-13,7.5
1970-11-14,7.5
1970-11-15,7.5
1970-11-16,7.0
1970-11-17,7.0
1970-11-18,7.0
1970-11-19,7.0
1970-11-20,7.0
1970-11-21,7.0
1970-11-22,7.0
1970-11-23,7.0
1970-11-24,7.0
1970-11-25,7.0
1970-11-26,7.0
1970-11-27,7.0
1970-11-28,7.0
1970-11-29,7.0
1970-11-30,7.0
1970-12-01,5.0
1970-12-02,5.0
1970-12-03,5.0
1970-12-04,5.0
1970-12-05,5.0
1970-12-06,5.0
1970-12-07,5.0
1970-12-08,5.0
1970-12-09,5.0
1970-12-10,5.0
1970-12-11,5.0
1970-12-12,5.0
1970-12-13,5.0
1970-12-14,5.0
1970-12-15,5.0
1970-12-16,5.0
1970-12-17,5.0
1970-12-18,5.0
1970-12-19,5.0
1970-12-20,5.0
1970-12-21,5.0
1970-12-22,5.0
1970-12-23,5.0
1970-12-24,5.0
1970-12-25,5.0
1970-12-26,5.0
1970-12-27,5.0
1970-12-28,5.0
1970-12-29,5.0
1970-12-30,5.0
1970-12-31,5.0
1971-01-01,2.5
1971-01-02,2.5
1971-01-03,2.5
1971-01-04,2.5
1971-01-05,2.5
1971-01-06,2.5
1971-01-07,2.5
1971-01-08,2.5
1971-01-09,2.5
1971-01-10,2.5
1971-01-11,2.5
1971-01-12,2.5
1971-01-13,2.5
1971-01-14,2.5
1971-01-15,2.5
1971-01-16,2.5
1971-01-17,2.5
1971-01-18,2.5
1971-01-19,2.5
1971-01-20,2.5
1971-01-21,2.5
1971-01-22,2.5
1971-01-23,2.5
1971-01-24,2.5
1971-01-25,2.5
1971-01-26,2.5
1971-01-27,2.5
1971-01-28,2.5
1971-01-29,2.5
1971-01-30,2.5
1971-01-31,2.5
1971-02-01,2.5
1971-02-02,2.5
1971-02-03,2.5
1971-02-04,2.5
1971-02-05,2.5
1971-02-06,2.5
1971-02-07,2.5
1971-02-08,2.5
1971-02-09,2.5
1971-02-10,2.5
1971-02-11,2.5
1971-02-12,2.5
1971-02-13,2.5
1971-02-14,2.5
1971-02-15,2.5
1971-02-16,2.5
1971-02-17,2.5
1971-02-18,2.5
1971-02-19,2.5
1971-02-20,2.5
1971-02-21,2.5
1971-02-22,2.5
1971-02-23,2.5
1971-02-24,2.5
1971-02-25,2.5
1971-02-26,2.5
1971-02-27,2.5
1971-02-28,2.5
1971-03-01,4.0
1971-03-02,4.0
1971-03-03,4.0
1971-03-04,4.0
1971-03-05,4.0
1971-03-06,4.5
1971-03-07,4.5
1971-03-08,4.5
1971-03-09,4.5
1971-03-10,4.5
1971-03-11,4.0999999
1971-03-12,4.0999999
1971-03-13,4.4000001
1971-03-14,4.0999999
1971-03-15,4.0999999
1971-03-16,4.4000001
1971-03-17,4.0999999
1971-03-18,3.20000005
1971-03-19,4.4000001
1971-03-20,4.9000001
1971-03-21,4.5999999
1971-03-22,3.4000000999999997
1971-03-23,3.4000000999999997
1971-03-24,3.4000000999999997
1971-03-25,3.70000005
1971-03-26,3.9000000999999997
1971-03-27,3.9000000999999997
1971-03-28,4.0999999
1971-03-29,4.0999999
1971-03-30,4.0999999
1971-03-31,4.4000001
1971-04-01,4.0999999
1971-04-02,4.4000001
1971-04-03,4.9000001
1971-04-04,4.5999999
1971-04-05,4.5999999
1971-04-06,5.4000001
1971-04-07,6.19999981
1971-04-08,7.9000001
1971-04-09,8.19999981
1971-04-10,7.5999999
1971-04-11,7.5999999
1971-04-12,7.0
1971-04-13,7.30000019
1971-04-14,8.19999981
1971-04-15,8.60000038
1971-04-16,7.9000001
1971-04-17,8.19999981
1971-04-18,8.60000038
1971-04-19,9.19999981
1971-04-20,9.5
1971-04-21,9.80000019
1971-04-22,10.0
1971-04-23,10.0
1971-04-24,10.0
1971-04-25,9.80000019
1971-04-26,9.5
1971-04-27,9.80000019
1971-04-28,12.0
1971-04-29,11.0
1971-04-30,10.0
1971-05-01,10.0
1971-05-02,10.0
1971-05-03,9.80000019
1971-05-04,9.5
1971-05-05,9.5
1971-05-06,9.19999981
1971-05-07,9.80000019
1971-05-08,9.5
1971-05-09,8.60000038
1971-05-10,9.5
1971-05-11,11.0
1971-05-12,12.0
1971-05-13,12.0
1971-05-14,9.5
1971-05-15,8.60000038
1971-05-16,8.89999962
1971-05-17,9.19999981
1971-05-18,12.0
1971-05-19,15.0
1971-05-20,17.0
1971-05-21,16.0
1971-05-22,14.0
1971-05-23,14.0
1971-05-24,13.0
1971-05-25,13.0
1971-05-26,13.0
1971-05-27,13.0
1971-05-28,12.0
1971-05-29,14.0
1971-05-30,13.0
1971-05-31,14.0
1971-06-01,15.0
1971-06-02,13.0
1971-06-03,18.0
1971-06-04,17.0
1971-06-05,17.0
1971-06-06,17.0
1971-06-07,18.0
1971-06-08,16.0
1971-06-09,16.0
1971-06-10,18.0
1971-06-11,19.0
1971-06-12,21.0
1971-06-13,24.0
1971-06-14,25.0
1971-06-15,20.0
1971-06-16,21.0
1971-06-17,22.0
1971-06-18,25.0
1971-06-19,27.0
1971-06-20,29.0
1971-06-21,28.0
1971-06-22,26.0
1971-06-23,25.0
1971-06-24,27.0
1971-06-25,24.0
1971-06-26,16.0
1971-06-27,19.0
1971-06-28,18.0
1971-06-29,15.0
1971-06-30,13.0
1971-07-01,13.0
1971-07-02,15.0
1971-07-03,16.0
1971-07-04,14.0
1971-07-05,13.0
1971-07-06,13.0
1971-07-07,14.0
1971-07-08,13.0
1971-07-09,12.0
1971-07-10,13.0
1971-07-11,12.0
1971-07-12,12.0
1971-07-13,10.0
1971-07-14,8.60000038
1971-07-15,7.9000001
1971-07-16,7.5999999
1971-07-17,7.5999999
1971-07-18,7.0
1971-07-19,7.30000019
1971-07-20,8.19999981
1971-07-21,8.60000038
1971-07-22,8.89999962
1971-07-23,9.19999981
1971-07-24,8.60000038
1971-07-25,7.30000019
1971-07-26,7.0
1971-07-27,8.19999981
1971-07-28,8.19999981
1971-07-29,8.60000038
1971-07-30,7.9000001
1971-07-31,8.19999981
1971-08-01,7.0
1971-08-02,7.5999999
1971-08-03,5.9000001
1971-08-04,4.9000001
1971-08-05,4.9000001
1971-08-06,4.5999999
1971-08-07,4.5999999
1971-08-08,4.5999999
1971-08-09,5.69999981
1971-08-10,4.5999999
1971-08-11,3.9000000999999997
1971-08-12,3.9000000999999997
1971-08-13,3.70000005
1971-08-14,3.4000000999999997
1971-08-15,3.4000000999999997
1971-08-16,3.70000005
1971-08-17,3.70000005
1971-08-18,3.4000000999999997
1971-08-19,3.20000005
1971-08-20,3.20000005
1971-08-21,3.0
1971-08-22,3.0
1971-08-23,3.0
1971-08-24,2.79999995
1971-08-25,2.5999999
1971-08-26,3.20000005
1971-08-27,3.20000005
1971-08-28,3.20000005
1971-08-29,3.20000005
1971-08-30,3.20000005
1971-08-31,3.20000005
1971-09-01,3.20000005
1971-09-02,3.0
1971-09-03,3.0
1971-09-04,3.20000005
1971-09-05,3.70000005
1971-09-06,3.20000005
1971-09-07,2.20000005
1971-09-08,2.20000005
1971-09-09,2.0
1971-09-10,1.7999999500000001
1971-09-11,1.7000000499999999
1971-09-12,1.7000000499999999
1971-09-13,1.7000000499999999
1971-09-14,1.7000000499999999
1971-09-15,1.7999999500000001
1971-09-16,2.20000005
1971-09-17,2.0
1971-09-18,2.0
1971-09-19,2.0
1971-09-20,2.20000005
1971-09-21,2.5999999
1971-09-22,2.5999999
1971-09-23,2.5999999
1971-09-24,2.79999995
1971-09-25,2.79999995
1971-09-26,2.4000000999999997
1971-09-27,2.4000000999999997
1971-09-28,2.4000000999999997
1971-09-29,2.5999999
1971-09-30,3.0
1971-10-01,2.79999995
1971-10-02,2.5999999
1971-10-03,2.79999995
1971-10-04,2.79999995
1971-10-05,2.79999995
1971-10-06,2.79999995
1971-10-07,2.79999995
1971-10-08,2.79999995
1971-10-09,2.79999995
1971-10-10,2.79999995
1971-10-11,2.79999995
1971-10-12,2.79999995
1971-10-13,3.0
1971-10-14,2.79999995
1971-10-15,3.0
1971-10-16,3.20000005
1971-10-17,3.20000005
1971-10-18,3.0
1971-10-19,2.79999995
1971-10-20,3.0
1971-10-21,3.20000005
1971-10-22,3.20000005
1971-10-23,3.20000005
1971-10-24,3.20000005
1971-10-25,3.70000005
1971-10-26,5.0999999
1971-10-27,7.0
1971-10-28,8.19999981
1971-10-29,7.5999999
1971-10-30,6.5
1971-10-31,7.0
1971-11-01,7.30000019
1971-11-02,6.5
1971-11-03,5.69999981
1971-11-04,5.4000001
1971-11-05,4.9000001
1971-11-06,4.4000001
1971-11-07,4.4000001
1971-11-08,4.0999999
1971-11-09,4.0999999
1971-11-10,3.9000000999999997
1971-11-11,3.9000000999999997
1971-11-12,3.9000000999999997
1971-11-13,3.9000000999999997
1971-11-14,3.70000005
1971-11-15,3.9000000999999997
1971-11-16,3.9000000999999997
1971-11-17,4.0999999
1971-11-18,3.9000000999999997
1971-11-19,3.79999995
1971-11-20,3.79999995
1971-11-21,3.79999995
1971-11-22,3.79999995
1971-11-23,3.79999995
1971-11-24,3.79999995
1971-11-25,3.79999995
1971-11-26,3.5999999
1971-11-27,3.29999995
1971-11-28,3.20000005
1971-11-29,3.20000005
1971-11-30,3.20000005
1971-12-01,3.20000005
1971-12-02,3.20000005
1971-12-03,3.0999999
1971-12-04,3.0999999
1971-12-05,3.0
1971-12-06,2.79999995
1971-12-07,2.70000005
1971-12-08,2.70000005
1971-12-09,2.70000005
1971-12-10,2.70000005
1971-12-11,2.5999999
1971-12-12,2.5999999
1971-12-13,2.5
1971-12-14,2.5
1971-12-15,2.4000000999999997
1971-12-16,2.4000000999999997
1971-12-17,2.29999995
1971-12-18,2.29999995
1971-12-19,2.20000005
1971-12-20,2.20000005
1971-12-21,2.20000005
1971-12-22,2.20000005
1971-12-23,2.20000005
1971-12-24,2.20000005
1971-12-25,2.20000005
1971-12-26,2.20000005
1971-12-27,2.20000005
1971-12-28,2.20000005
1971-12-29,2.20000005
1971-12-30,2.20000005
1971-12-31,2.20000005
1972-01-01,2.0999999
1972-01-02,2.0999999
1972-01-03,2.0999999
1972-01-04,2.0
1972-01-05,2.0
1972-01-06,2.0
1972-01-07,2.0
1972-01-08,2.0
1972-01-09,2.0
1972-01-10,2.0
1972-01-11,2.0
1972-01-12,2.0
1972-01-13,2.0
1972-01-14,2.0
1972-01-15,2.0
1972-01-16,1.89999998
1972-01-17,1.89999998
1972-01-18,1.89999998
1972-01-19,1.89999998
1972-01-20,1.89999998
1972-01-21,1.89999998
1972-01-22,1.7999999500000001
1972-01-23,1.7999999500000001
1972-01-24,1.7999999500000001
1972-01-25,1.7000000499999999
1972-01-26,1.7000000499999999
1972-01-27,1.7000000499999999
1972-01-28,1.60000002
1972-01-29,1.60000002
1972-01-30,1.60000002
1972-01-31,1.5
1972-02-01,1.5
1972-02-02,1.5
1972-02-03,1.5
1972-02-04,1.5
1972-02-05,1.5
1972-02-06,1.5
1972-02-07,1.5
1972-02-08,1.60000002
1972-02-09,1.7000000499999999
1972-02-10,1.7999999500000001
1972-02-11,1.7999999500000001
1972-02-12,1.89999998
1972-02-13,2.0
1972-02-14,2.0
1972-02-15,2.0999999
1972-02-16,2.20000005
1972-02-17,2.20000005
1972-02-18,2.29999995
1972-02-19,2.29999995
1972-02-20,2.4000000999999997
1972-02-21,2.4000000999999997
1972-02-22,2.5
1972-02-23,2.5
1972-02-24,2.5999999
1972-02-25,2.5999999
1972-02-26,2.70000005
1972-02-27,2.79999995
1972-02-28,2.79999995
1972-02-29,2.79999995
1972-03-01,2.9000000999999997
1972-03-02,2.9000000999999997
1972-03-03,3.0
1972-03-04,3.0999999
1972-03-05,3.0999999
1972-03-06,3.20000005
1972-03-07,3.29999995
1972-03-08,3.29999995
1972-03-09,3.4000000999999997
1972-03-10,3.5
1972-03-11,3.5999999
1972-03-12,3.70000005
1972-03-13,3.79999995
1972-03-14,4.0
1972-03-15,4.0999999
1972-03-16,4.0999999
1972-03-17,3.9000000999999997
1972-03-18,3.9000000999999997
1972-03-19,2.5999999
1972-03-20,2.4000000999999997
1972-03-21,3.20000005
1972-03-22,3.20000005
1972-03-23,3.9000000999999997
1972-03-24,4.9000001
1972-03-25,5.4000001
1972-03-26,5.0999999
1972-03-27,4.9000001
1972-03-28,4.9000001
1972-03-29,4.5999999
1972-03-30,4.9000001
1972-03-31,4.5999999
1972-04-01,4.4000001
1972-04-02,4.4000001
1972-04-03,4.4000001
1972-04-04,4.4000001
1972-04-05,4.0999999
1972-04-06,3.4000000999999997
1972-04-07,3.70000005
1972-04-08,4.0999999
1972-04-09,5.69999981
1972-04-10,5.9000001
1972-04-11,6.5
1972-04-12,7.0
1972-04-13,8.19999981
1972-04-14,9.19999981
1972-04-15,9.5
1972-04-16,9.19999981
1972-04-17,7.5999999
1972-04-18,7.0
1972-04-19,7.30000019
1972-04-20,7.5999999
1972-04-21,9.80000019
1972-04-22,12.0
1972-04-23,9.5
1972-04-24,8.89999962
1972-04-25,9.19999981
1972-04-26,9.80000019
1972-04-27,12.0
1972-04-28,12.0
1972-04-29,10.0
1972-04-30,9.80000019
1972-05-01,10.0
1972-05-02,7.0
1972-05-03,7.0
1972-05-04,9.19999981
1972-05-05,12.0
1972-05-06,13.0
1972-05-07,13.0
1972-05-08,13.0
1972-05-09,12.0
1972-05-10,9.5
1972-05-11,9.80000019
1972-05-12,9.19999981
1972-05-13,8.89999962
1972-05-14,9.80000019
1972-05-15,11.0
1972-05-16,9.19999981
1972-05-17,8.19999981
1972-05-18,9.5
1972-05-19,9.5
1972-05-20,9.19999981
1972-05-21,9.19999981
1972-05-22,9.19999981
1972-05-23,12.0
1972-05-24,14.0
1972-05-25,12.0
1972-05-26,10.0
1972-05-27,8.60000038
1972-05-28,7.30000019
1972-05-29,7.30000019
1972-05-30,8.60000038
1972-05-31,9.19999981
1972-06-01,10.0
1972-06-02,13.0
1972-06-03,13.0
1972-06-04,11.0
1972-06-05,8.19999981
1972-06-06,7.5999999
1972-06-07,5.69999981
1972-06-08,5.4000001
1972-06-09,6.19999981
1972-06-10,5.9000001
1972-06-11,6.5
1972-06-12,5.69999981
1972-06-13,5.4000001
1972-06-14,7.5999999
1972-06-15,8.19999981
1972-06-16,7.5999999
1972-06-17,7.5999999
1972-06-18,6.80000019
1972-06-19,6.80000019
1972-06-20,6.19999981
1972-06-21,5.4000001
1972-06-22,5.9000001
1972-06-23,5.0999999
1972-06-24,4.5999999
1972-06-25,5.0999999
1972-06-26,5.0999999
1972-06-27,3.70000005
1972-06-28,3.70000005
1972-06-29,3.70000005
1972-06-30,3.70000005
1972-07-01,3.70000005
1972-07-02,3.4000000999999997
1972-07-03,3.20000005
1972-07-04,3.0
1972-07-05,2.5999999
1972-07-06,2.5999999
1972-07-07,1.7999999500000001
1972-07-08,1.5
1972-07-09,1.39999998
1972-07-10,1.10000002
1972-07-11,1.10000002
1972-07-12,1.10000002
1972-07-13,0.790000021
1972-07-14,0.550000012
1972-07-15,0.550000012
1972-07-16,0.550000012
1972-07-17,0.550000012
1972-07-18,0.550000012
1972-07-19,0.449999988
1972-07-20,0.449999988
1972-07-21,0.449999988
1972-07-22,0.449999988
1972-07-23,0.449999988
1972-07-24,0.34999999400000004
1972-07-25,0.34999999400000004
1972-07-26,0.34999999400000004
1972-07-27,0.34999999400000004
1972-07-28,0.449999988
1972-07-29,0.449999988
1972-07-30,0.449999988
1972-07-31,0.34999999400000004
1972-08-01,0.34999999400000004
1972-08-02,0.34999999400000004
1972-08-03,0.34999999400000004
1972-08-04,0.34999999400000004
1972-08-05,0.449999988
1972-08-06,0.449999988
1972-08-07,0.449999988
1972-08-08,0.449999988
1972-08-09,0.550000012
1972-08-10,0.449999988
1972-08-11,0.34999999400000004
1972-08-12,0.34999999400000004
1972-08-13,0.25999999
1972-08-14,0.25999999
1972-08-15,0.25999999
1972-08-16,0.25999999
1972-08-17,0.670000017
1972-08-18,0.449999988
1972-08-19,0.449999988
1972-08-20,0.34999999400000004
1972-08-21,0.449999988
1972-08-22,1.5
1972-08-23,0.920000017
1972-08-24,0.550000012
1972-08-25,0.550000012
1972-08-26,0.550000012
1972-08-27,0.550000012
1972-08-28,0.550000012
1972-08-29,0.670000017
1972-08-30,0.670000017
1972-08-31,0.670000017
1972-09-01,0.670000017
1972-09-02,0.790000021
1972-09-03,0.920000017
1972-09-04,0.920000017
1972-09-05,0.920000017
1972-09-06,0.920000017
1972-09-07,0.790000021
1972-09-08,0.790000021
1972-09-09,0.790000021
1972-09-10,0.790000021
1972-09-11,0.670000017
1972-09-12,0.670000017
1972-09-13,0.920000017
1972-09-14,0.920000017
1972-09-15,0.920000017
1972-09-16,1.10000002
1972-09-17,1.20000005
1972-09-18,0.790000021
1972-09-19,0.790000021
1972-09-20,0.790000021
1972-09-21,0.790000021
1972-09-22,0.920000017
1972-09-23,0.790000021
1972-09-24,0.790000021
1972-09-25,0.790000021
1972-09-26,0.790000021
1972-09-27,0.790000021
1972-09-28,0.790000021
1972-09-29,0.790000021
1972-09-30,0.790000021
1972-10-01,1.10000002
1972-10-02,1.10000002
1972-10-03,1.10000002
1972-10-04,1.10000002
1972-10-05,1.10000002
1972-10-06,1.7999999500000001
1972-10-07,1.39999998
1972-10-08,1.20000005
1972-10-09,1.5
1972-10-10,1.20000005
1972-10-11,1.20000005
1972-10-12,1.5
1972-10-13,3.20000005
1972-10-14,3.20000005
1972-10-15,2.4000000999999997
1972-10-16,2.20000005
1972-10-17,1.7999999500000001
1972-10-18,2.0
1972-10-19,3.70000005
1972-10-20,3.4000000999999997
1972-10-21,3.0
1972-10-22,3.0
1972-10-23,3.0
1972-10-24,3.0
1972-10-25,2.9000000999999997
1972-10-26,2.79999995
1972-10-27,3.4000000999999997
1972-10-28,2.79999995
1972-10-29,2.5999999
1972-10-30,2.79999995
1972-10-31,3.0
1972-11-01,3.0
1972-11-02,3.20000005
1972-11-03,3.20000005
1972-11-04,3.0
1972-11-05,3.20000005
1972-11-06,3.0
1972-11-07,3.20000005
1972-11-08,3.4000000999999997
1972-11-09,3.70000005
1972-11-10,3.9000000999999997
1972-11-11,4.5999999
1972-11-12,4.0999999
1972-11-13,4.0999999
1972-11-14,4.4000001
1972-11-15,3.9000000999999997
1972-11-16,3.9000000999999997
1972-11-17,3.9000000999999997
1972-11-18,3.9000000999999997
1972-11-19,3.9000000999999997
1972-11-20,3.9000000999999997
1972-11-21,3.5
1972-11-22,3.0
1972-11-23,3.0
1972-11-24,3.0
1972-11-25,3.0
1972-11-26,2.5
1972-11-27,2.5
1972-11-28,2.5
1972-11-29,2.5
1972-11-30,2.5
1972-12-01,2.0
1972-12-02,1.5
1972-12-03,1.5
1972-12-04,1.5
1972-12-05,1.5
1972-12-06,1.20000005
1972-12-07,1.20000005
1972-12-08,1.20000005
1972-12-09,1.20000005
1972-12-10,1.5
1972-12-11,1.5
1972-12-12,1.5
1972-12-13,2.0
1972-12-14,2.0
1972-12-15,2.0
1972-12-16,2.0
1972-12-17,2.4000000999999997
1972-12-18,2.4000000999999997
1972-12-19,2.4000000999999997
1972-12-20,2.4000000999999997
1972-12-21,2.4000000999999997
1972-12-22,2.4000000999999997
1972-12-23,2.4000000999999997
1972-12-24,2.29999995
1972-12-25,2.29999995
1972-12-26,2.29999995
1972-12-27,2.29999995
1972-12-28,2.29999995
1972-12-29,2.29999995
1972-12-30,2.29999995
1972-12-31,2.20000005
1973-01-01,2.20000005
1973-01-02,2.20000005
1973-01-03,2.20000005
1973-01-04,2.20000005
1973-01-05,2.20000005
1973-01-06,2.20000005
1973-01-07,2.20000005
1973-01-08,2.0
1973-01-09,2.0
1973-01-10,2.0
1973-01-11,1.7999999500000001
1973-01-12,1.7999999500000001
1973-01-13,1.60000002
1973-01-14,1.60000002
1973-01-15,1.39999998
1973-01-16,1.39999998
1973-01-17,1.20000005
1973-01-18,1.20000005
1973-01-19,1.10000002
1973-01-20,1.10000002
1973-01-21,1.10000002
1973-01-22,1.10000002
1973-01-23,1.10000002
1973-01-24,1.10000002
1973-01-25,1.20000005
1973-01-26,1.20000005
1973-01-27,1.20000005
1973-01-28,1.20000005
1973-01-29,1.20000005
1973-01-30,1.2999999500000001
1973-01-31,1.2999999500000001
1973-02-01,1.39999998
1973-02-02,1.39999998
1973-02-03,1.60000002
1973-02-04,1.60000002
1973-02-05,1.60000002
1973-02-06,1.7999999500000001
1973-02-07,1.7999999500000001
1973-02-08,1.7999999500000001
1973-02-09,2.0
1973-02-10,2.0
1973-02-11,2.0
1973-02-12,2.20000005
1973-02-13,2.20000005
1973-02-14,2.20000005
1973-02-15,2.20000005
1973-02-16,2.20000005
1973-02-17,2.20000005
1973-02-18,2.20000005
1973-02-19,2.0999999
1973-02-20,2.0999999
1973-02-21,2.0999999
1973-02-22,2.0999999
1973-02-23,2.0999999
1973-02-24,2.0
1973-02-25,2.0
1973-02-26,2.0
1973-02-27,2.0
1973-02-28,2.0
1973-03-01,2.5
1973-03-02,2.5
1973-03-03,2.5
1973-03-04,2.5
1973-03-05,3.0
1973-03-06,3.0
1973-03-07,3.0
1973-03-08,3.5
1973-03-09,3.5
1973-03-10,4.0999999
1973-03-11,4.0999999
1973-03-12,4.0999999
1973-03-13,4.0999999
1973-03-14,4.0999999
1973-03-15,4.0999999
1973-03-16,3.5
1973-03-17,3.5
1973-03-18,3.5
1973-03-19,3.5
1973-03-20,3.5
1973-03-21,3.20000005
1973-03-22,3.20000005
1973-03-23,3.20000005
1973-03-24,3.20000005
1973-03-25,3.20000005
1973-03-26,3.20000005
1973-03-27,3.4000000999999997
1973-03-28,3.70000005
1973-03-29,4.4000001
1973-03-30,4.4000001
1973-03-31,4.0999999
1973-04-01,4.0999999
1973-04-02,3.9000000999999997
1973-04-03,4.4000001
1973-04-04,3.9000000999999997
1973-04-05,3.9000000999999997
1973-04-06,3.70000005
1973-04-07,4.0999999
1973-04-08,5.0999999
1973-04-09,3.9000000999999997
1973-04-10,3.70000005
1973-04-11,3.70000005
1973-04-12,3.70000005
1973-04-13,3.70000005
1973-04-14,3.70000005
1973-04-15,3.70000005
1973-04-16,3.70000005
1973-04-17,3.70000005
1973-04-18,3.70000005
1973-04-19,3.70000005
1973-04-20,3.70000005
1973-04-21,3.70000005
1973-04-22,3.9000000999999997
1973-04-23,3.9000000999999997
1973-04-24,3.9000000999999997
1973-04-25,4.0999999
1973-04-26,4.0999999
1973-04-27,4.4000001
1973-04-28,5.0999999
1973-04-29,6.80000019
1973-04-30,6.80000019
1973-05-01,6.5
1973-05-02,6.19999981
1973-05-03,5.9000001
1973-05-04,8.19999981
1973-05-05,9.19999981
1973-05-06,9.19999981
1973-05-07,11.0
1973-05-08,9.19999981
1973-05-09,8.19999981
1973-05-10,10.0
1973-05-11,10.0
1973-05-12,16.0
1973-05-13,16.0
1973-05-14,18.0
1973-05-15,16.0
1973-05-16,14.0
1973-05-17,13.0
1973-05-18,12.0
1973-05-19,12.0
1973-05-20,12.0
1973-05-21,12.0
1973-05-22,13.0
1973-05-23,19.0
1973-05-24,18.0
1973-05-25,15.0
1973-05-26,19.0
1973-05-27,20.0
1973-05-28,18.0
1973-05-29,22.0
1973-05-30,17.0
1973-05-31,14.0
1973-06-01,13.0
1973-06-02,15.0
1973-06-03,16.0
1973-06-04,18.0
1973-06-05,16.0
1973-06-06,17.0
1973-06-07,17.0
1973-06-08,16.0
1973-06-09,17.0
1973-06-10,18.0
1973-06-11,21.0
1973-06-12,23.0
1973-06-13,26.0
1973-06-14,29.0
1973-06-15,34.0
1973-06-16,34.0
1973-06-17,44.0
1973-06-18,44.0
1973-06-19,30.0
1973-06-20,25.0
1973-06-21,26.0
1973-06-22,22.0
1973-06-23,21.0
1973-06-24,22.0
1973-06-25,26.0
1973-06-26,26.0
1973-06-27,26.0
1973-06-28,21.0
1973-06-29,20.0
1973-06-30,18.0
1973-07-01,19.0
1973-07-02,25.0
1973-07-03,28.0
1973-07-04,40.0
1973-07-05,37.0
1973-07-06,32.0
1973-07-07,24.0
1973-07-08,22.0
1973-07-09,28.0
1973-07-10,28.0
1973-07-11,23.0
1973-07-12,22.0
1973-07-13,22.0
1973-07-14,32.0
1973-07-15,35.0
1973-07-16,30.0
1973-07-17,24.0
1973-07-18,25.0
1973-07-19,41.0
1973-07-20,41.0
1973-07-21,26.0
1973-07-22,22.0
1973-07-23,20.0
1973-07-24,17.0
1973-07-25,13.0
1973-07-26,12.0
1973-07-27,9.80000019
1973-07-28,12.0
1973-07-29,10.0
1973-07-30,10.0
1973-07-31,9.80000019
1973-08-01,10.0
1973-08-02,9.19999981
1973-08-03,7.9000001
1973-08-04,6.30000019
1973-08-05,2.5999999
1973-08-06,2.5999999
1973-08-07,2.79999995
1973-08-08,2.5999999
1973-08-09,2.20000005
1973-08-10,4.0999999
1973-08-11,5.4000001
1973-08-12,3.20000005
1973-08-13,2.79999995
1973-08-14,3.0
1973-08-15,3.20000005
1973-08-16,3.20000005
1973-08-17,3.70000005
1973-08-18,3.4000000999999997
1973-08-19,3.70000005
1973-08-20,7.30000019
1973-08-21,7.0
1973-08-22,5.9000001
1973-08-23,5.4000001
1973-08-24,4.9000001
1973-08-25,4.5999999
1973-08-26,3.9000000999999997
1973-08-27,3.9000000999999997
1973-08-28,3.70000005
1973-08-29,3.4000000999999997
1973-08-30,3.4000000999999997
1973-08-31,3.20000005
1973-09-01,3.20000005
1973-09-02,3.20000005
1973-09-03,3.0
1973-09-04,3.0
1973-09-05,2.79999995
1973-09-06,3.4000000999999997
1973-09-07,3.4000000999999997
1973-09-08,3.4000000999999997
1973-09-09,3.4000000999999997
1973-09-10,4.4000001
1973-09-11,5.69999981
1973-09-12,4.9000001
1973-09-13,5.9000001
1973-09-14,6.5
1973-09-15,5.69999981
1973-09-16,4.5999999
1973-09-17,4.4000001
1973-09-18,3.9000000999999997
1973-09-19,3.0
1973-09-20,2.79999995
1973-09-21,2.79999995
1973-09-22,2.5999999
1973-09-23,2.5999999
1973-09-24,2.5999999
1973-09-25,2.5999999
1973-09-26,2.5999999
1973-09-27,2.5999999
1973-09-28,2.5999999
1973-09-29,2.5999999
1973-09-30,2.5999999
1973-10-01,2.5999999
1973-10-02,2.5999999
1973-10-03,2.5999999
1973-10-04,2.20000005
1973-10-05,2.20000005
1973-10-06,2.20000005
1973-10-07,2.0
1973-10-08,2.0
1973-10-09,2.0
1973-10-10,2.20000005
1973-10-11,2.20000005
1973-10-12,2.20000005
1973-10-13,2.20000005
1973-10-14,2.20000005
1973-10-15,2.20000005
1973-10-16,2.20000005
1973-10-17,2.20000005
1973-10-18,2.20000005
1973-10-19,2.20000005
1973-10-20,2.4000000999999997
1973-10-21,2.4000000999999997
1973-10-22,2.4000000999999997
1973-10-23,2.5999999
1973-10-24,2.5999999
1973-10-25,2.5999999
1973-10-26,2.5999999
1973-10-27,2.5999999
1973-10-28,2.5999999
1973-10-29,2.79999995
1973-10-30,2.5999999
1973-10-31,2.5999999
1973-11-01,2.4000000999999997
1973-11-02,2.5999999
1973-11-03,3.4000000999999997
1973-11-04,3.70000005
1973-11-05,3.20000005
1973-11-06,2.5999999
1973-11-07,2.5999999
1973-11-08,2.79999995
1973-11-09,3.0
1973-11-10,3.4000000999999997
1973-11-11,3.4000000999999997
1973-11-12,3.20000005
1973-11-13,3.20000005
1973-11-14,3.20000005
1973-11-15,3.0
1973-11-16,3.4000000999999997
1973-11-17,3.70000005
1973-11-18,3.70000005
1973-11-19,3.70000005
1973-11-20,3.70000005
1973-11-21,3.70000005
1973-11-22,3.70000005
1973-11-23,3.70000005
1973-11-24,4.0999999
1973-11-25,4.5999999
1973-11-26,4.4000001
1973-11-27,4.0999999
1973-11-28,4.4000001
1973-11-29,4.9000001
1973-11-30,5.0999999
1973-12-01,5.69999981
1973-12-02,5.4000001
1973-12-03,5.0999999
1973-12-04,4.9000001
1973-12-05,5.0999999
1973-12-06,4.9000001
1973-12-07,5.0999999
1973-12-08,5.0999999
1973-12-09,4.9000001
1973-12-10,6.19999981
1973-12-11,5.69999981
1973-12-12,5.4000001
1973-12-13,5.4000001
1973-12-14,5.69999981
1973-12-15,5.0999999
1973-12-16,5.0999999
1973-12-17,5.4000001
1973-12-18,5.0999999
1973-12-19,4.9000001
1973-12-20,5.0999999
1973-12-21,4.80000019
1973-12-22,4.5999999
1973-12-23,4.80000019
1973-12-24,4.5999999
1973-12-25,4.4000001
1973-12-26,4.4000001
1973-12-27,4.4000001
1973-12-28,4.4000001
1973-12-29,4.19999981
1973-12-30,4.0
1973-12-31,4.0
1974-01-01,4.0
1974-01-02,4.0
1974-01-03,3.5999999
1974-01-04,3.20000005
1974-01-05,3.20000005